Wind_Speed
17 17 15 14 14 14 12 11 8 7 7 6 6 6 5 6 6 7 6 5 5 6 6 7 6 5 6 6 8 9 10 11 12 13 14 16 17 18 18 18 18 17 17 16
16 16 15 14 14 14 11 7 6 6 4 3 4 5 5 5 5 5 6 5 5 6 6 7 6 6 6 6 8 9 10 11 12 13 14 15 16 17 18 18 18 18 17 16
15 15 15 14 13 12 9 5 3 3 3 4 4 4 4 3 3 4 5 5 5 5 6 6 6 5 6 6 8 9 10 11 11 12 13 14 15 17 17 18 18 18 16 15
16 15 14 12 9 7 5 4 2 2 3 3 3 2 2 1 2 3 4 5 5 5 6 6 6 6 6 7 8 9 10 11 11 11 12 13 15 16 17 18 18 17 16 15
14 12 11 9 7 5 5 4 3 3 3 1 1 2 1 1 3 4 5 5 5 5 5 5 5 6 6 7 8 9 10 10 10 10 11 13 14 16 16 17 17 17 16 14
12 11 9 8 7 6 5 4 3 2 2 0 1 2 2 2 4 6 6 6 5 5 5 5 6 7 7 7 8 9 9 10 10 10 11 12 14 15 16 16 17 17 16 14
13 10 9 8 7 5 4 3 2 1 1 1 2 3 3 4 5 6 7 7 6 6 6 6 7 7 8 8 8 9 9 10 10 10 11 12 13 14 15 15 16 16 15 14
11 10 9 8 6 5 3 2 1 1 1 1 3 4 5 6 7 8 8 8 7 7 7 7 8 8 9 9 9 9 9 9 9 10 10 11 12 13 14 14 15 15 15 14
11 10 8 7 5 4 2 1 0 1 1 2 4 6 6 7 8 9 9 8 8 8 8 8 9 9 10 10 10 10 10 10 10 10 10 11 12 13 13 13 14 14 15 14
9 8 8 6 4 3 1 1 1 2 3 4 5 7 9 10 10 10 10 10 9 9 9 9 10 10 11 11 11 10 10 10 10 10 10 10 11 12 13 13 13 14 14 13
7 6 5 4 3 1 1 2 3 4 6 6 6 7 10 12 12 12 12 12 12 11 10 10 11 12 12 12 12 11 11 11 11 10 10 10 11 11 12 12 12 13 13 13
5 5 3 2 2 1 3 4 5 6 8 9 9 8 12 14 14 14 14 13 13 13 12 12 12 13 13 13 13 13 12 12 11 11 11 10 11 11 11 12 12 12 12 12
5 4 3 3 3 4 5 6 7 8 9 10 12 11 13 15 15 15 14 14 13 14 14 14 14 14 14 15 14 14 14 13 13 12 11 11 11 11 11 11 11 11 11 11
5 5 5 5 5 6 7 8 9 10 11 12 12 13 14 15 16 16 16 16 15 15 15 15 15 15 15 16 16 16 16 15 14 14 13 12 12 11 11 11 11 11 11 11
6 6 7 7 8 9 9 9 10 11 11 13 13 14 15 16 17 17 17 17 17 16 15 15 16 17 17 17 17 17 17 17 16 16 15 14 13 12 12 11 11 11 11 11
7 8 9 10 11 12 11 12 13 13 14 14 15 15 16 17 17 18 18 18 18 17 17 17 17 18 19 19 19 19 19 19 18 18 17 17 16 15 14 13 12 12 11 11
10 11 11 12 13 13 13 14 16 16 16 16 17 17 18 18 19 19 19 19 18 19 19 19 19 20 21 21 21 21 21 21 20 20 19 19 18 17 16 15 14 13 12 12
12 13 13 14 14 14 14 16 16 17 17 18 19 20 20 20 21 21 21 21 20 20 20 20 21 21 22 22 22 23 23 23 23 22 21 21 20 19 18 17 16 15 14 13
15 16 16 17 17 16 17 18 19 19 19 20 21 22 22 23 24 24 24 23 23 24 24 23 23 23 23 24 24 24 25 25 24 24 23 23 22 22 21 19 18 17 16 15
18 19 20 20 20 21 21 21 22 24 24 24 24 25 25 26 26 26 27 26 26 26 27 27 26 25 26 26 26 26 27 26 26 26 26 25 24 24 23 22 21 19 18 17
21 22 23 24 24 25 25 25 26 27 28 28 29 29 29 29 30 30 29 29 29 29 29 29 29 29 29 29 29 28 29 29 29 29 28 28 27 26 25 24 23 22 21 20
24 25 26 27 28 28 28 29 30 31 32 32 32 33 33 34 34 34 34 33 33 33 33 33 33 32 32 33 32 31 31 31 32 31 30 30 29 29 28 26 26 25 23 22
27 28 29 30 30 31 32 32 33 34 35 35 36 36 37 37 38 38 38 38 37 37 37 37 36 35 36 36 35 34 34 34 34 33 33 32 32 31 30 29 28 27 26 24
30 32 32 33 33 34 35 36 37 37 38 39 39 40 41 42 42 42 41 41 41 40 40 40 40 39 38 38 38 37 37 36 36 35 35 35 34 33 32 31 30 29 28 26
33 35 36 37 37 38 39 40 40 40 41 42 43 43 44 45 45 46 45 45 44 43 43 43 42 41 40 40 40 40 40 39 38 38 37 37 36 36 34 33 32 31 30 29
37 38 39 39 40 42 42 43 44 44 45 45 46 46 47 47 48 48 48 47 47 46 45 45 44 43 42 42 42 42 42 41 41 40 39 39 39 38 37 35 34 33 32 31
Wind_Direction
174 179 184 191 191 193 205 218 223 222 232 245 262 267 262 262 273 272 270 276 281 275 267 269 268 284 303 316 322 325 326 331 334 336 339 342 344 345 346 346 344 340 338 337
160 166 175 179 183 189 189 201 207 222 238 248 266 266 267 265 271 273 273 281 289 284 276 275 266 283 303 315 320 323 326 330 334 337 341 344 346 347 348 348 346 343 340 339
148 160 164 163 166 175 189 192 179 209 247 241 261 254 259 271 280 290 289 293 295 289 284 281 271 280 300 311 317 322 325 329 333 337 342 345 347 348 349 349 349 348 346 343
144 149 156 159 157 162 166 180 196 216 213 216 229 240 250 290 312 305 306 305 302 290 283 278 269 278 295 308 316 319 322 325 330 336 342 346 348 349 350 351 352 352 350 348
133 138 144 147 148 145 142 145 146 150 152 161 227 275 315 325 341 336 334 321 306 290 280 276 270 278 291 304 312 317 321 323 327 334 341 345 348 350 351 352 354 354 352 351
121 125 127 126 128 134 137 139 144 140 138 130 314 315 351 350 345 344 338 328 312 298 288 278 275 280 290 299 306 313 317 320 325 332 337 342 346 350 352 353 355 356 355 354
116 115 117 119 122 120 132 148 168 161 193 306 308 332 347 345 340 337 332 326 317 303 294 283 279 283 289 294 301 308 311 315 321 328 333 338 343 348 351 354 356 358 358 357
111 111 114 116 118 115 120 133 160 193 253 292 314 325 333 335 334 329 324 319 313 303 292 281 277 281 285 289 296 302 306 310 316 323 328 334 339 344 349 352 355 357 359 359
109 108 109 109 109 116 117 111 170 236 288 298 318 325 321 318 320 322 320 318 313 302 291 282 276 277 279 283 290 296 299 303 309 316 323 329 334 340 345 350 353 355 356 358
94 101 107 107 104 106 96 60 350 312 312 308 305 308 313 308 310 317 316 315 311 302 291 284 280 277 276 278 282 288 293 297 301 308 316 323 329 336 343 348 351 354 356 357
85 89 96 94 95 86 7 320 311 306 306 306 302 306 302 302 307 311 312 311 308 301 291 283 280 278 277 276 277 281 285 290 295 300 307 315 322 330 338 345 349 352 354 356
67 67 70 51 18 339 314 307 305 304 303 301 301 304 298 302 307 310 310 308 305 299 291 282 278 277 276 276 275 276 279 282 287 292 298 306 313 322 331 337 343 346 348 351
45 34 25 7 342 325 319 318 314 308 303 301 301 303 303 304 307 307 308 306 303 299 295 288 280 276 274 275 274 274 275 276 279 283 288 296 302 310 320 328 334 338 342 345
19 9 357 341 326 320 318 314 312 310 306 302 304 306 304 303 305 307 308 306 302 299 295 290 284 277 272 272 273 271 272 272 274 277 280 285 290 298 307 315 323 329 334 338
359 349 343 334 321 319 321 314 306 303 303 302 304 306 306 304 305 305 304 302 302 298 293 289 284 280 274 271 271 269 270 270 271 273 275 277 281 286 293 302 310 318 324 329
341 334 328 323 317 316 314 308 303 302 300 300 302 303 304 305 304 303 302 299 298 295 292 287 283 280 276 273 271 269 267 267 268 270 271 272 274 278 284 290 296 303 311 317
334 328 324 319 314 312 306 303 302 302 301 302 302 303 303 304 302 301 299 296 294 292 290 286 283 280 277 274 272 269 267 266 265 267 268 270 271 274 277 281 285 291 298 305
330 325 322 319 316 312 309 306 303 303 305 305 304 303 304 303 302 301 298 295 293 290 287 284 282 280 278 275 273 271 268 266 264 264 265 267 268 270 271 274 277 281 287 293
324 321 319 318 315 312 307 304 302 302 304 305 303 302 301 300 299 299 298 296 293 291 287 285 282 280 278 275 273 271 269 267 264 262 263 264 265 267 268 269 271 274 278 284
318 318 317 317 314 311 308 306 303 302 300 302 301 300 298 297 295 295 294 292 290 288 287 285 282 279 277 275 273 271 269 266 264 261 260 261 263 265 266 266 267 270 273 276
316 315 315 313 311 309 308 308 305 303 303 301 301 300 298 296 293 293 292 289 287 285 284 283 281 279 276 274 273 271 268 265 263 261 260 260 261 262 263 264 265 266 269 271
312 311 310 309 307 306 306 306 304 303 301 301 299 298 297 295 293 291 290 289 286 284 283 281 280 278 276 274 272 270 267 264 262 260 259 259 259 260 260 261 262 263 265 267
308 307 306 305 304 303 303 302 302 302 301 300 298 296 295 293 292 290 289 288 286 284 282 281 279 277 274 272 270 268 265 263 261 260 258 257 257 257 258 259 260 260 262 264
305 303 302 302 302 301 300 300 300 300 300 298 296 294 293 292 290 289 288 286 284 283 282 280 278 275 273 270 268 267 265 263 261 259 257 256 255 255 256 256 258 259 260 261
301 300 300 301 301 299 299 299 298 298 297 297 295 292 291 289 288 287 286 285 283 281 279 278 277 274 272 269 266 265 264 262 260 258 256 255 254 254 254 255 256 256 257 258
299 299 299 300 299 298 298 297 297 297 296 296 295 292 290 289 288 287 285 284 282 280 277 276 275 274 271 268 266 263 262 260 259 258 256 254 253 252 252 253 253 254 255 255
Height
5811 5817 5820 5824 5827 5830 5833 5836 5838 5841 5842 5843 5844 5844 5846 5845 5846 5846 5846 5846 5846 5846 5846 5846 5845 5845 5844 5843 5842 5840 5839 5837 5835 5832 5829 5826 5823 5819 5816 5812 5808 5805 5801 5798
5813 5817 5820 5823 5826 5829 5832 5835 5838 5840 5841 5842 5843 5844 5844 5844 5844 5844 5844 5844 5844 5844 5844 5844 5843 5843 5842 5841 5840 5839 5837 5835 5833 5831 5828 5825 5821 5818 5814 5811 5807 5803 5799 5796
5815 5818 5821 5824 5827 5830 5833 5835 5837 5839 5840 5841 5842 5843 5843 5843 5843 5843 5842 5842 5842 5842 5842 5841 5841 5841 5840 5840 5839 5838 5836 5834 5832 5829 5827 5824 5820 5817 5813 5809 5805 5801 5798 5794
5816 5819 5822 5825 5828 5831 5833 5836 5837 5838 5839 5839 5841 5841 5842 5841 5841 5841 5841 5840 5840 5840 5840 5839 5839 5839 5838 5838 5837 5836 5834 5832 5830 5828 5825 5822 5819 5816 5812 5808 5804 5800 5797 5793
5820 5822 5825 5827 5830 5832 5834 5835 5837 5838 5838 5839 5839 5840 5841 5840 5839 5839 5839 5838 5838 5838 5838 5838 5837 5837 5837 5836 5835 5834 5833 5831 5829 5827 5824 5821 5818 5815 5811 5807 5804 5800 5796 5793
5823 5825 5827 5829 5831 5832 5834 5836 5837 5838 5838 5839 5839 5839 5839 5838 5838 5837 5837 5837 5837 5836 5836 5836 5835 5835 5835 5834 5833 5832 5831 5829 5827 5825 5823 5820 5817 5814 5810 5807 5803 5799 5796 5792
5825 5827 5829 5830 5832 5833 5835 5837 5838 5838 5838 5839 5838 5838 5838 5837 5837 5836 5835 5835 5835 5834 5834 5834 5833 5833 5833 5832 5832 5830 5829 5828 5826 5824 5821 5819 5816 5813 5810 5806 5803 5799 5795 5792
5827 5829 5830 5831 5833 5834 5835 5837 5838 5838 5838 5838 5837 5836 5837 5836 5835 5834 5834 5833 5833 5832 5832 5832 5831 5831 5830 5830 5829 5828 5827 5826 5824 5822 5820 5817 5815 5812 5809 5806 5802 5799 5795 5792
5829 5831 5832 5832 5833 5834 5835 5836 5837 5837 5837 5836 5836 5836 5835 5834 5833 5833 5832 5831 5831 5831 5830 5829 5829 5829 5828 5828 5827 5826 5825 5824 5822 5820 5818 5816 5814 5811 5808 5805 5802 5798 5795 5792
5831 5832 5833 5833 5834 5834 5835 5835 5836 5836 5835 5835 5835 5834 5834 5832 5832 5831 5830 5829 5828 5828 5827 5827 5826 5826 5825 5825 5824 5823 5822 5821 5820 5818 5817 5815 5812 5810 5807 5804 5801 5798 5795 5792
5833 5833 5834 5834 5834 5834 5835 5835 5834 5834 5834 5834 5833 5835 5832 5830 5829 5828 5828 5827 5826 5825 5825 5824 5824 5823 5822 5822 5821 5820 5820 5819 5817 5816 5815 5813 5811 5808 5806 5803 5800 5797 5795 5792
5834 5834 5834 5835 5835 5834 5834 5834 5833 5833 5832 5831 5831 5834 5829 5827 5826 5825 5825 5824 5823 5822 5821 5821 5820 5820 5819 5819 5818 5817 5817 5816 5815 5813 5812 5811 5809 5807 5804 5802 5799 5797 5794 5792
5834 5834 5834 5834 5835 5834 5833 5832 5831 5831 5830 5829 5828 5830 5826 5825 5823 5822 5822 5821 5820 5819 5818 5817 5817 5816 5816 5815 5814 5814 5813 5813 5812 5811 5809 5808 5807 5805 5803 5800 5798 5796 5793 5791
5834 5834 5834 5834 5832 5831 5831 5830 5829 5828 5827 5826 5825 5824 5823 5822 5820 5819 5818 5817 5816 5815 5814 5813 5813 5812 5812 5811 5811 5810 5809 5809 5808 5807 5806 5805 5804 5802 5801 5799 5796 5794 5792 5789
5833 5833 5832 5831 5830 5829 5828 5827 5826 5825 5824 5823 5822 5820 5819 5818 5816 5815 5814 5812 5811 5811 5810 5809 5808 5807 5807 5807 5806 5806 5805 5805 5804 5803 5802 5801 5800 5799 5798 5796 5794 5792 5790 5788
5832 5832 5830 5829 5828 5826 5825 5824 5822 5821 5820 5818 5817 5816 5815 5813 5812 5810 5809 5808 5806 5806 5805 5804 5803 5802 5802 5801 5801 5801 5800 5800 5799 5799 5798 5797 5796 5795 5794 5793 5791 5789 5788 5786
5830 5829 5828 5827 5825 5823 5822 5820 5818 5817 5815 5814 5813 5813 5810 5809 5807 5806 5804 5803 5801 5801 5800 5799 5798 5797 5796 5795 5795 5795 5794 5794 5794 5793 5793 5792 5791 5791 5790 5789 5787 5786 5784 5783
5828 5826 5824 5823 5822 5820 5821 5816 5814 5812 5811 5810 5808 5807 5805 5804 5802 5800 5799 5797 5796 5795 5794 5793 5792 5791 5790 5789 5789 5788 5788 5788 5787 5787 5787 5786 5786 5785 5785 5784 5783 5782 5781 5779
5824 5822 5820 5818 5816 5815 5814 5811 5809 5807 5806 5804 5803 5801 5800 5798 5796 5794 5793 5791 5789 5788 5787 5786 5785 5785 5784 5783 5782 5781 5781 5781 5781 5780 5780 5780 5780 5779 5779 5778 5778 5777 5776 5775
5820 5817 5815 5812 5810 5809 5808 5806 5803 5802 5800 5798 5796 5795 5793 5791 5790 5788 5786 5784 5783 5781 5779 5778 5777 5777 5776 5775 5774 5774 5773 5773 5773 5773 5773 5773 5773 5773 5772 5772 5771 5771 5770 5770
5815 5812 5810 5807 5804 5802 5801 5798 5797 5795 5793 5791 5789 5787 5785 5783 5782 5780 5778 5777 5775 5773 5772 5770 5769 5768 5767 5766 5766 5766 5765 5765 5764 5764 5764 5765 5765 5765 5765 5765 5765 5764 5764 5764
5808 5806 5803 5800 5798 5797 5794 5791 5789 5787 5784 5782 5780 5778 5776 5774 5772 5770 5768 5767 5765 5763 5762 5760 5759 5758 5757 5756 5756 5756 5755 5755 5754 5755 5755 5756 5756 5756 5757 5757 5757 5757 5757 5757
5801 5799 5796 5794 5792 5788 5785 5783 5781 5778 5775 5773 5770 5768 5765 5763 5761 5759 5757 5755 5753 5752 5750 5749 5748 5747 5746 5744 5744 5744 5744 5743 5744 5744 5745 5746 5746 5747 5747 5748 5748 5749 5749 5749
5793 5790 5787 5784 5782 5779 5776 5773 5771 5768 5765 5762 5759 5756 5753 5751 5748 5746 5744 5743 5741 5739 5737 5736 5734 5733 5733 5732 5731 5731 5731 5731 5732 5733 5734 5735 5736 5737 5737 5738 5739 5740 5740 5741
5785 5780 5778 5775 5772 5769 5766 5763 5760 5757 5754 5750 5747 5744 5740 5737 5735 5732 5730 5728 5727 5725 5723 5721 5720 5719 5719 5718 5718 5718 5717 5718 5719 5720 5721 5723 5724 5725 5727 5728 5729 5730 5731 5732
5774 5771 5768 5766 5762 5758 5756 5752 5748 5745 5741 5738 5734 5730 5726 5723 5720 5717 5715 5713 5711 5709 5707 5706 5705 5704 5704 5703 5704 5704 5704 5704 5705 5706 5708 5710 5712 5713 5715 5716 5718 5719 5721 5722